Terminal Aerodrome Forecast
Issued by NWS Twin Cities, MN

Home | Current Version | Previous Version | Graphics & Text | Print | Product List | Glossary On
Versions: 1 2 3 4 5 6 7 8 9 10 11 12 13 14 15 16 17 18 19 20 21 22 23 24 25 26 27 28 29 30
000
FTUS43 KMPX 291100
TAFMSP
TAF
KMSP 291138Z 2912/3018 02011KT P6SM OVC012
     FM291400 03012KT P6SM -RA BKN010 OVC020
     FM291700 03011KT P6SM BKN018 OVC035
     FM292200 05009KT P6SM SCT025 BKN035
     FM300900 08007KT P6SM SCT012=

USA.gov is the U.S. government's official web portal to all federal, state and local government web resources and services.